Location: Unspecified
(0.0000°N, 0.0000°E)
Time: 17:49:50
(UTC+00:00)

STARLINK 1038 - Pass Details

Date: 21 January 2020
Orbit: 548 x 551 km, 53.0° (Epoch: 17 January)

Event Time Altitude Azimuth Distance (km) Brightness Sun altitude
Rises 04:16:40 0° 186° (S) 2,713 7.4 -26.7°
Reaches altitude 10° 04:19:36 10° 164° (SSE) 1,817 6.7 -26.1°
Maximum altitude 04:22:13 16° 125° (SE) 1,454 6.6 -25.5°
Drops below altitude 10° 04:24:50 10° 85° (E) 1,812 7.1 -24.8°
Sets 04:27:44 0° 64° (ENE) 2,702 7.7 -24.2°
